Погода в Бору

Россия / Нижегородская область     56°08′50″N   45°12′36″E
темп.,
°C
ветер,
м/с
пор.,
м/с
влажн.,
%
обл.,
%
осадки,
мм/ч
давл.,
гПа
погр.,
м
12 мая, ср
ср1200:00+13всв259695 0.6 1027118
03:00+12всв25969 1.3 1027106
06:00+14св389037 0.0 1027232
09:00+20всв46695 0.0 1027586
12:00+24вюв464262 0.0 10261731
15:00+25вюв57375 0.0 10242670
18:00+22юв3853100 0.0 1024361
21:00+18вюв2670100 0.0 1024123
13 мая, чт
чт1300:00+17юв3106852 0.0 1024250
03:00+15вюв267350 0.0 1024114
06:00+16вюв387411 0.0 1024298
09:00+18вюв4966100 0.0 1023475
12:00+23вюв694597 0.0 10221103
15:00+18ююв61180100 0.7 1021919
18:00+17вюв41385100 1.5 1020729
21:00+15юв41294100 4.8 1019471
14 мая, пт
пт1400:00+14ююв311932 1.9 1019283
03:00+13ю27971 1.9 1019155
06:00+15ююз24925 0.0 1020150
09:00+19ююз2475100 0.0 1020563
12:00+22ю3458100 0.0 10201129
15:00+24ю35576 0.0 10201510
18:00+22юв25675 0.0 1018274
21:00+18юв2588100 0.0 101778
15 мая, сб
сб1500:00+16ююв2885100 0.0 1017158
03:00+15ююв2688100 0.0 1017103
06:00+17ююв378296 0.0 1017202
09:00+23ююв5855100 0.0 1016548
12:00+25ю6114167 0.0 1015948
15:00+26ю6134425 0.0 10151230
18:00+23ю512524 0.0 1014993
21:00+19ю4167096 0.0 1014562
16 мая, вс
вс1600:00+18ю41571100 0.0 1014383
03:00+17ю4137041 0.0 1013339
06:00+17ююв377355 0.0 1014222
09:00+21ююз3659100 0.0 1014542
12:00+25ююз465268 0.0 10131095
15:00+25ююз475345 0.0 10131602
18:00+21зюз3877100 2.3 1013300
21:00+17юз2389100 2.5 101441